Hourly Data Report for December 03, 2019

EUREKA CLIMATE
NUNAVUT
Current Station Operator: ECCC - MSC

79°59'21.000" N
85°56'02.000" W
10.00 m
2401199
71613
NEK

Download Data

Hourly Data (December 2019)
Hourly Data Report for December 3, 2019
TIME
LST
Temp Definition
°C
Dew Point Definition
°C
Rel Hum Definition
%
Precip. Amount Definition
mm

Wind Dir Definition
10's deg

Wind Spd Definition
km/h
Visibility Definition
km
Stn Press Definition
kPa
Hmdx Definition


Wind Chill Definition


Weather Definition


00:00 -33.7 -36.9 73 0.0 4 5   98.30   -40 LegendNANA
01:00 -32.8 -35.9 73 0.0 7 3   98.35   -36 LegendNANA
02:00 -34.4 -37.7 72 0.0 9 6   98.40   -42 LegendNANA
03:00 -34.8 -38.2 71 0.0 11 7   98.43   -43 LegendNANA
04:00 -33.9 -37.2 72 0.0 6 3   98.46   -38 LegendNANA
05:00 -35.4 -39.0 70 0.0 7 3   98.51   -39 LegendNANA
06:00 -33.8 -37.1 72 0.0 11 5   98.57   -40 LegendNANA
07:00 -34.3 -37.6 72 0.0 6 4   98.59   -39 LegendNANA
08:00 -33.9 -37.2 72 0.0 9 3   98.63   -38 LegendNANA
09:00 -34.3 -37.6 72 0.0 5 5   98.65   -41 LegendNANA
10:00 -34.5 -37.9 72 0.0 12 4   98.68   -39 LegendNANA
11:00 -34.7 -38.0 72 0.0 8 6   98.73   -42 LegendNANA
12:00 -34.4 -37.7 72 0.0 11 2   98.76   -37 LegendNANA
13:00 -35.0 -38.4 71 0.0 7 2   98.81   -38 LegendNANA
14:00 -34.8 -38.1 71 0.0 13 2   98.88   -37 LegendNANA
15:00 -35.2 -38.7 71 0.0 12 1   98.92   -36 LegendNANA
16:00 -36.0 -39.5 70 0.0 11 6   98.96   -43 LegendNANA
17:00 -36.3 -39.9 70 0.0 11 5   99.01   -43 LegendNANA
18:00 -35.9 -39.4 70 0.0   0   99.03     LegendNANA
19:00 -36.1 -39.7 70 0.0   0   99.03     LegendNANA
20:00 -35.7 -39.1 71 0.0   0   99.04     LegendNANA
21:00 -36.5 -40.1 70 0.0 11 10   99.10   -47 LegendNANA
22:00 -36.2 -39.8 70 0.0 5 4   99.10   -41 LegendNANA
23:00 -35.9 -39.4 70 0.0 9 3   99.10   -40 LegendNANA

Notes on Data Quality.

Legend

  • E = Estimated
  • M = Missing
  • NA = Not Available*
  • [empty] = Indicates an unobserved value
Date modified: